Regional Weather Roundup
Issued by NWS

Home | Current Version | Previous Version | Text Only | Print | Product List | Glossary Off
Versions: 1 2 3 4 5 6 7 8 9 10 11 12 13 14 15 16 17 18 19 20 21 22 23 24 25 26 27 28 29 30 31 32 33 34 35 36 37 38 39 40 41 42 43 44 45 46 47 48 49 50

000
ASUS43 KMPX 252201
RWRMN
WEATHER ROUNDUP FOR MINNESOTA
NATIONAL WEATHER SERVICE TWIN CITIES/CHANHASSEN MN
500 PM CDT FRI JUL 25 2014


NOTE: "FAIR" INDICATES FEW OR NO CLOUDS BELOW 12,000 FEET WITH NO
SIGNIFICANT WEATHER AND/OR OBSTRUCTIONS TO VISIBILITY. N/A MEANS
CURRENT SKY AND/OR WEATHER CONDITIONS ARE NOT AVAILABLE.

MNZ060>063-068>070-252300-
   Twin Cities Metro

CITY           SKY/WX    TMP DP  RH WIND       PRES   REMARKS
TWIN CITIES    CLOUDY    80  68  66 S9        29.78S
ST PAUL        CLOUDY    78  69  73 S6        29.78S
CRYSTAL        CLOUDY    80  67  64 SW6       29.77R
BLAINE         CLOUDY    81  70  69 S7        29.78S
LAKEVILLE      CLOUDY    79  70  73 SW5       29.78S
EDEN PRAIRIE   CLOUDY    80  69  69 SW6       29.77R
SOUTH ST PAUL  CLOUDY    80  67  65 S7        29.78S
LAKE ELMO      CLOUDY    77  70  78 CALM      29.80S
$$
MNZ001>005-007-008-013>017-022>024-027-028-252300-
   Northwest Minnesota

CITY           SKY/WX    TMP DP  RH WIND       PRES   REMARKS
BEMIDJI        CLOUDY    77  67  71 W5        29.76R
HALLOCK        SUNNY     81  46  30 W13       29.71R
ROSEAU         SUNNY     79  70  73 S8        29.69F
WARROAD        MOSUNNY   79  70  73 S7        29.70F
THIEF RVR FALL CLOUDY    75  70  83 SW7       29.73S
CROOKSTON      MOSUNNY   79  70  73 W5        29.73F
FOSSTON        CLOUDY    77  66  69 W7        29.76S
DETROIT LAKES  MOSUNNY   77  66  69 SW5       29.78S
MOORHEAD       MOSUNNY   81  72  74 N6        29.76S
PARK RAPIDS    CLOUDY    78  67  68 W6        29.76S
$$
MNZ006-009>011-018-025>026-252300-
   North Central Minnesota

CITY           SKY/WX    TMP DP  RH WIND       PRES   REMARKS
BAUDETTE       PTSUNNY   77  66  68 S6        29.73F
FLAG ISLAND    SUNNY     72  64  78 SE10      29.69F
INTL FALLS     CLOUDY    74  65  73 SW5       29.74S
WASKISH        PTSUNNY   77  68  73 W5        29.74S
BIG FORK       MOSUNNY   72  64  78 S2        29.78S
LONGVILLE      CLOUDY    75  68  78 CALM      29.77S
GRAND RAPIDS   CLOUDY    75  64  69 S3        29.77S
CRANE LAKE     CLOUDY    72  64  78 CALM      29.77S
ORR            CLOUDY    70  61  73 SE5       29.75S
COOK           CLOUDY    70  63  78 S3        29.78F
$$
MNZ012-019>021-037-252300-
   Northeast Minnesota

CITY           SKY/WX    TMP DP  RH WIND       PRES   REMARKS
DULUTH         CLOUDY    68  63  84 SE10      29.80S
ELY            PTSUNNY   72  63  73 SW6       29.78F
HIBBING        CLOUDY    75  65  70 S5        29.78S
EVELETH        CLOUDY    72  64  78 S5        29.79F
DULUTH HARBOR  CLOUDY    61  57  88 NE5       29.80S
TWO HARBORS    CLOUDY    68  63  83 MISG      29.78S
SILVER BAY     MOSUNNY   66  66 100 S9        29.78R
GRAND MARAIS     N/A     58  54  86 E3        29.78F
G MARAIS ARPRT PTSUNNY   66  57  72 S5        29.82S
$$
MNZ029>031-032-039>041-046>048-054>057-064-252300-
   West Central Minnesota

CITY           SKY/WX    TMP DP  RH WIND       PRES   REMARKS
FERGUS FALLS   PTSUNNY   75  64  69 W5        29.76S
WHEATON        MOSUNNY   73  66  78 W7        29.78F
MORRIS         MOSUNNY   79  70  73 N6        29.76F
ALEXANDRIA     CLOUDY    75  67  76 NW5       29.79F
ELBOW LAKE     PTSUNNY   75  68  78 W5        29.77S
WADENA         PTSUNNY   75  66  73 SW5       29.77S
GLENWOOD       MOSUNNY   79  68  69 SW6       29.79S
APPLETON       MOSUNNY   82  70  65 NW5       29.76R
BENSON         CLOUDY    79  70  73 N5        29.77S
ORTONVILLE     PTSUNNY   79  68  69 N10       29.78R
MADISON        SUNNY     82  72  69 NW7       29.77R
WILLMAR        FAIR      81  70  69 CALM      29.78S
$$
MNZ033>034-036-042>043-049>051-058-059-252300-
   Central Minnesota

CITY           SKY/WX    TMP DP  RH WIND       PRES   REMARKS
ST CLOUD       CLOUDY    80  68  66 SW5       29.77S
SAUK CENTRE    CLOUDY    76  67  76 W5        29.79S
PAYNESVILLE    HVY RAIN  74  69  84 CALM      29.78F
AITKIN         CLOUDY    81  70  69 SW7       29.76S
PINE RIVER     CLOUDY    79  68  69 SW5       29.80S
BRAINERD       CLOUDY    75  67  76 SW7       29.78S
STAPLES        CLOUDY    75  66  73 SW7       29.78S
LONG PRAIRIE   CLOUDY    73  66  78 CALM      29.79S
LITTLE FALLS   CLOUDY    75  64  69 CALM      29.78S
LITCHFIELD     CLOUDY    79  72  78 CALM      29.78F
BUFFALO        CLOUDY    78  67  69 S5        29.79S
MAPLE LAKE     CLOUDY    79  70  74 CALM      29.78S
$$
MNZ037-044-045-052-053-252300-
   East Central Minnesota

CITY           SKY/WX    TMP DP  RH WIND       PRES   REMARKS
PRINCETON      CLOUDY    79  70  73 CALM      29.78S
MORA           CLOUDY    73  66  78 CALM      29.79S
CAMBRIDGE      MOSUNNY   79  66  65 SE6       29.76S
RUSH CITY      CLOUDY    74  67  79 SE5       29.78S
MOOSE LAKE     CLOUDY    75  68  78 S5        29.76S
HINCKLEY       CLOUDY    72  70  94 SE5       29.79S
CLOQUET        CLOUDY    70  63  78 E8        29.79S
MCGREGOR       CLOUDY    79  68  69 SW6       29.77S
$$
MNZ071>073-080-081-089-090-097-098-252300-
   Southwest Minnesota

CITY           SKY/WX    TMP DP  RH WIND       PRES   REMARKS
MONTEVIDEO     CLOUDY    82  72  69 NW5       29.77R
GRANITE FALLS  CLOUDY    82  71  68 W7        29.77S
CANBY          CLOUDY    81  70  69 NW5       29.78S
MARSHALL       PTSUNNY   82  68  61 W6        29.77S
REDWOOD FALLS  CLOUDY    83  71  67 S8        29.76S
OLIVIA         CLOUDY    81  70  69 SW3       29.76S
PIPESTONE      PTSUNNY   81  72  74 NW5       29.80F
WINDOM         CLOUDY    81  70  69 SW5       29.79S
WORTHINGTON    CLOUDY    79  72  78 W5        29.81S
JACKSON        CLOUDY    79  68  69 SW5       29.80F
TRACY          PTSUNNY   84  73  67 NW8       29.78S HX  90
SLAYTON        CLOUDY    82  71  69 CALM      29.81S
$$
MNZ065>067-074>077-082>085-091>093-252300-
   South Central Minnesota

CITY           SKY/WX    TMP DP  RH WIND       PRES   REMARKS
MANKATO        CLOUDY    79  64  61 S9        29.79S
NEW ULM        SUNNY     81  70  69 S7        29.77F
ST JAMES       PTSUNNY   81  68  65 S7        29.79F
FAIRMONT       CLOUDY    77  61  57 S10       29.80S
GLENCOE        CLOUDY    81  67  64 SW3       29.77S
FARIBAULT      CLOUDY    82  64  54 S9        29.79F
OWATONNA       PTSUNNY   81  68  65 S8        29.80F
WASECA         PTSUNNY   77  63  61 S10       29.81F
ALBERT LEA     PTSUNNY   79  66  65 S9        29.81S
$$
MNZ078>079-086>088-094>096-252300-
   Southeast Minnesota

CITY           SKY/WX    TMP DP  RH WIND       PRES   REMARKS
ROCHESTER      MOSUNNY   79  67  66 S10       29.83F
RED WING       CLOUDY    81  66  61 S5        29.78S
STANTON        CLOUDY    82  68  63 S8        29.77F
DODGE CENTER   MOSUNNY   79  68  69 S8        29.82S
WINONA         PTSUNNY   79  66  65 S3        29.82F
AUSTIN         CLOUDY    79  68  69 S9        29.82R
PRESTON        PTSUNNY   77  71  81 SE8       29.84F
$$
ABBREVIATIONS USED IN REMARKS
   TC - TEMPERATURES IN CELSIUS
  WCI - WIND CHILL INDEX
   HX - HEAT INDEX
  VSB - VISIBILITY
$$



USA.gov is the U.S. government's official web portal to all federal, state and local government web resources and services.